Location: Hac?musa Deresi
(39.1694°N, 32.2508°E)
Time: 15:25:55
(UTC+00:00)

Cosmos 1346 Rocket - Pass Details

Date: 22 April 2026
Orbit: 472 x 485 km, 81.2° (Epoch: 11 May)

Event Time Altitude Azimuth Distance (km) Brightness Sun altitude
Rises 18:14:55 0° 351° (N) 2,526 6.9 -18.3°
Reaches altitude 10° 18:17:01 10° 351° (N) 1,644 5.8 -18.6°
Maximum altitude 18:20:37 88° 77° (ENE) 478 2.4 -19.2°
Enters shadow 18:21:20 56° 168° (SSE) 570 2.6 -19.3°
